Theta_e
348 347 338 328 326 323 321 320 325 332 337 343 344 343 343 341 343 343 342 340 338 336 333 331 335 340 343 344 343 344 344 344 344 345 345 344 343 341 339 339 341 343 343 344 344 344 344 343 344 344 344 344 344 343 341 340 339 339 339 339 340 340 339 338 338 338 338 339 340 340 340 340 340 340 340 341 342 342 341 340 340 340 341 340 340
348 346 339 328 326 323 321 322 327 334 338 342 343 342 343 343 343 343 343 340 337 333 333 338 341 343 343 344 343 344 343 344 344 345 345 344 343 341 338 338 340 341 342 343 343 344 344 344 344 344 344 344 343 342 340 338 338 338 338 338 338 338 337 336 336 336 336 337 337 338 338 338 339 340 339 340 341 340 341 340 339 340 340 339 339
347 347 342 330 325 324 321 323 328 335 339 342 343 343 343 343 344 343 342 337 335 335 339 342 343 343 343 343 343 344 344 344 344 344 344 343 342 340 338 338 339 339 340 341 343 344 344 344 344 343 343 341 341 340 339 337 336 335 334 335 336 336 336 335 335 335 335 335 334 336 336 337 337 338 338 339 339 339 339 339 338 339 338 337 338
347 348 343 331 324 323 322 324 329 335 338 340 342 343 343 343 342 341 339 336 338 341 343 343 343 344 343 343 343 344 343 344 343 343 343 342 342 340 339 339 339 339 339 340 342 343 343 344 342 341 339 337 336 337 336 335 334 332 329 327 329 333 335 334 334 335 336 337 336 337 337 337 336 333 334 335 335 336 337 337 335 336 336 336 336
347 347 342 336 330 323 321 324 327 334 337 337 339 341 341 342 339 339 340 341 343 343 343 343 343 343 343 343 343 343 343 343 343 343 343 342 342 342 341 341 340 338 339 339 341 343 343 343 342 338 333 332 331 332 332 333 333 331 326 324 323 325 332 334 334 334 337 337 337 338 337 338 335 328 327 329 329 329 331 333 334 336 337 337 336
346 346 343 342 336 324 320 323 326 332 338 338 338 338 337 338 338 339 342 343 344 343 344 343 344 343 343 343 343 343 342 343 342 343 343 343 343 342 342 341 340 339 340 340 340 342 343 343 342 336 330 329 329 330 331 331 332 330 327 326 324 322 329 333 332 334 336 336 337 338 335 336 337 330 326 327 326 325 327 328 329 333 336 337 337
346 346 345 345 338 324 319 323 324 330 339 339 338 338 337 338 339 340 342 343 344 344 344 343 344 343 343 343 343 342 341 340 340 340 339 340 340 340 340 340 340 339 339 339 339 341 342 342 341 334 328 328 327 329 331 331 331 330 328 328 327 323 327 331 331 335 336 337 337 335 333 334 337 334 329 331 328 328 331 330 326 327 332 334 336
345 346 346 344 336 322 319 322 325 330 337 338 338 339 338 339 339 340 342 343 344 344 344 343 344 343 343 342 341 339 337 334 331 331 331 331 331 333 337 338 338 338 337 337 339 340 341 342 339 331 328 328 326 329 331 330 330 330 329 329 328 325 326 330 333 335 336 338 336 331 333 333 337 334 328 329 327 330 335 334 332 326 327 332 335
345 346 346 343 332 320 319 322 325 331 335 335 337 340 340 339 339 341 343 343 344 344 344 343 343 342 342 340 339 336 331 327 324 324 326 327 326 327 332 336 336 336 336 337 339 340 341 340 337 330 328 327 326 329 330 329 329 329 330 330 328 324 327 333 334 336 337 336 334 334 336 334 338 334 326 324 324 332 336 335 337 331 326 330 331
346 346 345 342 331 321 320 322 325 329 333 334 337 341 341 341 341 342 343 344 343 344 344 344 343 342 341 339 337 331 326 324 323 325 327 328 328 326 326 329 333 335 336 337 339 339 340 339 334 329 327 326 325 329 330 329 329 329 330 330 327 324 328 335 335 337 336 332 332 333 334 335 339 335 328 326 326 333 336 335 336 331 328 330 330
346 347 345 341 332 322 320 322 326 328 332 334 337 341 343 342 342 343 344 344 343 344 344 343 343 341 339 336 332 327 324 324 327 332 333 334 335 332 329 327 327 333 337 338 339 339 339 336 332 328 327 325 325 329 331 329 329 329 330 330 327 327 332 335 337 337 333 331 331 331 331 335 339 332 327 329 328 330 333 333 332 330 332 332 332
346 346 344 338 328 322 322 323 326 329 333 336 339 342 343 343 343 344 344 343 343 344 343 343 342 340 337 334 330 328 326 326 330 335 336 336 336 337 336 333 326 329 337 338 338 339 337 335 332 329 327 324 325 330 330 328 329 329 331 329 327 332 336 335 337 336 332 331 332 333 333 337 336 326 327 332 331 329 331 331 332 332 333 333 333
345 345 342 338 330 323 322 325 328 329 334 339 341 343 344 343 344 344 343 343 344 344 343 343 342 339 335 333 332 331 329 327 329 331 332 332 331 332 333 334 329 326 333 338 338 337 336 334 331 328 327 323 325 331 331 328 329 330 331 329 327 332 335 334 336 334 333 333 333 332 336 340 333 327 330 334 334 332 332 332 332 332 332 332 332
345 345 343 340 335 329 325 326 329 331 337 342 343 344 344 344 344 344 343 343 343 343 343 342 340 337 335 334 334 333 332 329 328 331 332 331 329 327 326 328 327 322 327 335 337 336 335 332 328 326 325 322 326 332 331 329 330 330 332 329 327 331 334 335 336 333 333 333 334 333 337 339 331 329 334 335 334 332 330 330 329 329 329 330 330
345 345 343 341 338 337 333 330 332 334 338 342 343 344 344 345 344 343 343 343 343 343 343 342 339 336 335 335 335 334 332 329 329 332 334 333 330 327 324 324 323 319 322 330 335 335 334 329 325 325 322 322 327 332 332 331 331 330 332 331 330 333 335 337 337 332 333 334 333 334 338 335 326 329 335 334 333 331 329 328 329 330 329 329 330
345 344 343 343 340 340 339 336 336 336 337 341 343 343 343 344 344 343 343 343 343 342 342 341 339 337 336 336 336 335 334 331 330 330 332 334 333 330 325 320 317 318 321 326 333 336 333 327 324 323 321 322 328 332 332 332 331 331 332 331 331 334 336 338 338 333 334 335 333 334 337 333 325 329 334 333 332 331 331 331 331 331 331 330 331
344 343 343 343 342 341 340 339 338 337 337 340 341 341 341 342 343 343 343 343 343 342 342 341 339 337 337 338 337 336 336 335 333 331 330 332 333 333 330 324 316 316 318 323 329 333 331 326 324 322 320 323 329 332 332 332 332 332 332 331 332 332 335 337 338 335 333 334 333 335 337 334 327 327 332 333 331 331 332 333 333 331 331 331 330
343 342 342 342 343 342 341 339 338 338 337 339 340 340 339 341 342 343 343 343 343 342 342 341 340 339 338 338 336 336 337 337 336 334 332 331 332 332 332 330 323 317 316 319 323 326 327 326 324 321 320 323 328 332 332 332 332 332 332 332 332 332 335 337 338 335 331 333 334 336 338 334 327 328 333 334 332 331 331 332 332 331 332 332 330
343 342 341 341 342 342 341 340 339 339 337 338 338 339 339 340 342 342 342 342 342 342 342 341 341 340 339 338 336 336 337 337 337 335 333 332 334 333 331 331 330 324 318 317 319 321 324 323 322 320 320 323 328 332 332 333 332 333 332 331 332 332 335 337 338 334 332 334 334 337 337 329 325 329 333 334 333 332 331 330 330 330 331 332 331
344 343 341 341 343 343 342 341 341 340 339 338 337 338 339 340 341 342 342 342 342 342 342 342 341 340 338 338 338 339 339 340 339 338 336 334 335 335 331 330 331 329 322 316 317 319 320 320 320 319 320 323 328 331 332 332 332 333 333 332 332 330 333 338 338 333 333 334 333 337 334 326 325 331 334 334 333 333 331 329 330 330 330 332 332
345 344 343 343 344 343 343 342 342 340 339 339 337 339 340 341 341 342 342 342 342 341 342 341 341 340 338 339 341 343 342 342 341 339 339 338 336 335 332 330 329 330 324 317 316 317 319 319 319 319 320 322 326 329 331 332 332 332 332 333 332 330 335 340 336 333 334 332 333 337 333 328 326 331 335 335 333 333 330 329 329 330 331 331 331
345 344 344 344 344 344 343 342 342 340 339 338 337 338 339 341 341 342 342 342 341 341 342 342 342 340 339 342 343 343 342 341 340 339 340 339 337 332 331 332 329 328 326 322 318 315 317 318 319 320 320 322 323 327 332 335 335 333 332 332 332 334 338 338 335 334 333 332 335 336 334 330 327 330 334 335 333 333 331 329 329 330 330 330 330
346 345 345 345 345 344 343 342 342 341 339 338 337 337 338 339 340 342 342 340 339 340 342 342 342 341 341 342 342 341 338 339 337 336 338 336 334 330 330 331 328 327 327 326 323 318 317 316 317 318 319 321 322 326 332 337 338 336 333 332 334 337 338 337 335 334 332 333 336 336 334 331 329 329 332 334 333 332 332 329 329 330 330 330 330
346 345 345 345 344 344 343 343 342 340 338 336 337 337 337 337 338 340 341 341 339 340 342 341 340 340 340 340 339 339 338 338 335 334 336 336 335 335 334 334 333 331 329 328 329 327 325 322 320 320 319 320 323 327 331 334 337 337 337 336 337 338 337 336 336 333 332 333 335 336 334 332 331 330 331 334 334 332 332 331 330 330 330 330 330
346 345 345 345 344 344 343 343 342 340 337 335 337 338 337 337 337 338 339 341 340 340 340 339 339 338 338 338 338 338 337 337 336 337 339 339 339 339 339 340 339 339 335 335 336 335 334 332 331 330 328 327 328 330 332 332 333 335 337 338 338 338 337 336 335 333 333 333 335 336 334 333 332 330 331 333 334 332 332 331 330 330 329 329 329
346 346 345 345 344 343 343 343 341 340 336 336 337 337 338 338 337 336 337 338 338 338 337 337 337 337 337 337 337 337 337 337 339 341 341 340 341 341 340 341 341 340 339 339 339 339 338 337 337 336 334 333 333 333 333 332 331 331 333 335 335 335 335 335 334 334 334 333 335 336 334 334 333 332 330 331 333 333 333 332 331 330 329 329 329
346 346 345 344 344 343 343 342 341 339 337 336 337 337 338 338 337 337 336 336 336 336 336 337 336 337 337 337 338 337 338 340 342 343 343 342 342 342 340 340 340 340 340 340 340 340 339 339 339 338 337 335 334 333 333 333 332 330 330 331 333 335 334 334 334 334 335 334 336 337 336 335 334 333 332 330 331 332 333 332 331 330 330 329 329
345 345 344 344 343 343 342 341 340 339 337 337 337 338 338 339 339 337 337 336 336 336 337 337 336 337 337 337 338 338 340 342 343 343 343 343 342 342 341 340 341 340 339 340 340 340 340 339 339 339 339 338 336 334 333 334 333 332 330 329 330 333 335 335 334 334 335 335 337 338 337 336 335 334 333 332 329 330 332 332 331 330 330 329 329
345 345 344 344 343 343 342 340 340 338 337 337 338 339 339 339 338 337 338 337 337 337 337 337 337 338 339 339 340 341 343 343 343 343 343 343 343 343 343 342 341 341 340 340 341 340 340 340 340 340 340 339 338 337 336 335 334 334 334 332 330 330 333 335 335 334 334 335 337 337 338 337 336 335 334 333 331 329 331 332 332 331 330 330 330
345 345 344 343 343 342 341 340 338 336 336 337 339 339 339 338 338 338 338 336 337 337 337 339 340 341 341 342 343 343 344 344 343 343 344 344 344 344 344 343 342 342 341 341 341 340 340 341 340 340 340 339 339 339 338 336 336 335 335 334 333 331 331 334 335 335 334 335 336 336 338 338 336 336 334 334 333 330 330 333 333 331 331 330 331
345 344 343 343 342 341 341 339 335 335 337 338 339 338 338 338 338 339 337 337 338 338 339 341 342 343 344 344 344 344 345 345 344 344 344 344 344 344 343 343 342 342 342 341 341 341 341 341 340 341 341 340 339 339 339 338 338 337 336 335 334 334 332 333 335 335 335 335 336 337 338 338 337 336 334 334 334 331 330 332 334 332 331 331 331
344 343 342 342 341 340 339 337 335 336 337 338 339 338 339 339 339 338 338 339 340 340 341 342 343 343 343 343 345 344 345 345 344 344 343 343 343 342 342 342 342 342 341 340 340 340 340 340 340 341 341 341 341 340 341 340 339 339 338 337 336 335 334 334 334 334 335 335 336 337 338 338 338 336 334 334 334 333 331 330 333 333 332 331 331
343 343 342 341 341 339 337 336 335 337 338 338 339 338 339 339 339 339 339 341 341 341 342 342 343 343 342 343 344 344 343 343 343 342 342 342 342 341 341 342 342 341 340 340 340 340 340 340 340 340 340 340 340 341 341 340 340 339 339 339 338 336 335 335 334 334 335 335 336 337 337 337 338 338 336 334 334 334 333 330 330 332 332 332 332
343 342 342 341 339 337 336 336 336 337 338 339 339 339 339 339 339 340 341 341 342 342 342 343 343 343 343 343 343 343 343 342 342 342 341 341 340 341 340 340 341 340 339 340 340 341 340 340 340 340 340 339 339 340 340 340 340 340 339 339 339 338 337 337 336 335 335 335 336 337 337 337 337 338 338 336 335 333 333 332 329 329 331 332 332
342 342 342 341 338 336 336 337 338 338 338 339 339 339 339 339 340 341 342 341 342 342 343 344 344 343 343 343 342 342 342 342 342 341 341 340 340 339 339 340 340 340 339 340 340 340 340 339 339 339 339 339 339 339 339 339 339 340 340 340 340 339 338 338 337 337 335 334 335 336 337 337 336 337 337 338 337 334 333 333 331 328 330 331 332
342 342 341 340 338 337 337 338 339 339 339 339 340 340 340 341 342 342 343 342 342 343 344 343 343 343 343 343 343 341 341 342 342 342 342 341 340 339 340 340 340 340 339 340 339 339 339 339 339 338 338 338 337 338 338 338 338 339 339 340 340 340 338 339 339 338 337 336 336 336 336 336 336 336 337 338 339 337 334 333 332 330 328 330 331
342 342 341 339 338 337 338 339 339 340 340 340 340 341 342 342 342 343 343 343 343 344 344 343 343 343 343 344 343 341 341 342 342 342 342 341 341 340 340 340 340 339 339 339 339 338 338 338 338 338 337 337 337 336 336 336 336 337 337 338 339 339 339 339 339 339 338 337 337 337 336 335 336 337 337 336 338 339 336 333 333 332 329 328 330
342 341 340 338 338 338 339 340 339 340 341 341 341 342 343 342 342 343 344 344 344 344 343 343 343 343 344 343 342 342 342 342 342 342 341 340 340 339 339 339 339 339 339 339 337 337 338 337 338 338 337 337 337 336 336 336 336 336 336 336 336 337 338 339 339 339 338 337 337 337 337 336 336 337 336 335 337 338 337 335 334 334 332 329 329
342 341 340 338 338 339 341 341 341 342 342 342 342 342 343 342 342 343 344 344 344 344 343 343 343 343 344 343 342 342 342 342 342 340 340 340 339 339 339 339 339 338 338 337 336 336 337 337 338 337 337 337 336 336 336 336 337 338 338 337 337 336 336 338 338 338 338 338 337 336 336 337 337 337 337 337 337 336 336 336 335 334 333 331 330
342 341 340 339 340 342 342 342 344 345 343 341 342 342 341 342 341 341 341 342 343 342 342 342 343 343 343 342 342 342 341 341 340 340 339 339 339 338 338 338 337 336 336 336 335 335 336 336 336 336 336 336 335 335 335 336 337 338 337 337 337 336 337 338 338 338 338 338 337 335 336 337 337 337 337 337 338 336 335 336 336 334 334 333 331
338 341 341 341 343 342 338 340 343 344 343 341 341 340 338 339 338 338 339 340 341 342 342 342 342 342 341 341 341 341 340 339 339 338 338 337 337 336 336 336 335 335 335 335 335 335 335 335 335 335 335 335 335 334 334 335 336 335 335 335 335 335 336 338 338 337 338 338 336 336 336 336 336 337 337 337 336 336 336 336 335 334 334 334 333
335 340 341 341 343 339 335 339 342 342 342 340 338 337 337 337 336 336 338 339 341 341 341 341 341 341 340 340 340 339 338 338 337 336 336 336 335 335 335 334 334 334 334 334 334 334 334 334 334 334 333 334 333 333 333 334 334 334 335 335 334 334 333 335 336 336 338 337 336 335 335 335 336 336 335 335 336 336 336 336 334 335 335 335 334
337 339 340 340 341 340 339 341 341 340 341 339 338 337 337 337 336 337 339 341 342 340 340 340 340 340 340 338 338 337 336 335 335 334 334 334 334 334 334 334 333 333 333 333 333 333 333 333 333 332 333 332 332 332 332 333 334 334 335 334 333 332 332 332 334 335 337 336 335 334 334 334 335 334 333 334 335 336 335 336 336 336 337 335 334
337 338 340 341 340 340 340 341 340 339 340 339 338 339 338 337 337 338 340 341 340 339 339 339 339 339 338 337 336 336 335 334 334 333 333 333 333 333 333 333 333 332 332 332 332 332 331 331 331 331 332 332 332 332 332 332 333 333 334 334 333 333 332 332 333 333 334 335 335 335 334 334 334 333 333 332 334 335 335 335 335 335 336 335 333
335 337 339 341 340 338 338 339 339 339 339 338 338 340 338 336 336 339 340 340 339 338 339 339 338 338 337 336 335 334 334 333 333 332 332 331 332 332 332 332 332 332 332 331 331 331 331 331 331 331 331 332 332 332 332 332 332 332 333 333 334 333 333 332 332 332 332 333 336 336 334 333 333 332 332 332 333 334 335 336 335 335 335 335 334
336 338 338 339 339 338 338 339 339 339 339 339 339 339 338 335 336 339 340 340 340 339 339 339 338 337 336 336 334 333 332 332 332 331 331 331 331 331 331 331 331 331 331 330 331 331 331 331 331 331 331 332 332 332 333 332 332 332 333 334 333 332 333 333 332 332 331 331 333 336 335 333 331 330 331 332 332 333 333 335 335 335 335 335 334
336 338 338 338 338 339 339 340 340 339 339 339 339 338 336 334 337 340 340 340 339 339 338 338 337 337 336 335 334 332 331 331 331 330 330 331 330 331 331 331 331 331 331 330 331 331 331 331 331 331 331 332 332 332 332 332 332 333 333 335 334 332 331 332 332 332 332 332 331 333 334 333 331 330 330 331 332 332 332 333 334 335 335 335 335
336 337 338 338 338 340 340 340 340 339 339 339 338 337 334 335 339 340 339 339 339 338 338 337 337 336 335 334 332 331 330 330 330 330 330 330 330 330 331 331 330 331 330 330 331 331 331 331 331 332 332 332 332 332 332 333 333 333 333 334 334 332 330 330 331 331 331 332 332 331 331 333 333 332 330 330 332 332 332 333 333 334 335 335 335
336 337 337 337 338 339 338 340 340 339 340 340 337 336 335 338 340 339 338 338 337 337 337 336 336 335 334 332 331 331 330 330 330 330 329 329 330 330 330 331 330 330 330 330 331 331 331 331 331 332 332 331 331 332 332 333 333 333 332 333 333 332 331 331 331 330 330 331 331 331 330 332 334 333 331 330 330 330 331 333 334 334 334 334 335
338 338 337 336 337 338 337 338 340 338 339 339 337 336 338 339 338 338 338 337 336 336 336 336 335 333 332 331 331 331 330 330 330 330 329 329 330 330 330 330 330 330 330 329 330 330 330 331 331 331 331 331 331 331 332 333 333 332 332 332 332 333 332 332 331 330 331 330 330 331 330 332 332 333 334 332 330 331 330 332 333 333 333 333 334
337 337 336 335 335 337 337 337 338 336 336 338 336 335 337 338 337 337 337 337 336 336 335 334 333 332 331 330 329 330 330 330 329 329 329 329 329 329 329 329 329 329 329 329 329 329 330 330 331 331 331 331 331 331 332 333 332 331 332 332 332 332 332 332 331 330 330 329 330 330 331 332 331 330 333 331 329 332 331 331 331 331 332 332 333
Wind_Speed
17 20 22 20 18 18 16 16 16 17 17 17 17 17 17 17 15 15 15 15 14 13 13 13 14 15 14 13 13 13 13 13 13 13 13 14 14 13 13 13 12 12 11 11 11 10 11 12 13 13 13 13 13 12 14 14 13 14 14 13 13 13 14 14 13 13 13 13 13 13 14 14 14 13 12 12 12 12 12 11 11 13 14 13 14
20 21 21 21 19 18 18 17 18 17 17 17 17 18 17 16 16 15 15 14 14 14 14 14 15 15 14 14 14 14 14 13 13 13 13 13 13 13 12 12 12 12 11 11 11 10 12 13 13 14 14 13 12 13 14 14 14 14 13 12 12 12 12 12 12 12 12 12 11 12 13 13 13 12 12 11 12 12 12 12 12 14 14 12 12
22 20 21 21 20 19 18 18 19 18 18 18 17 18 17 17 16 15 15 15 15 15 15 15 15 15 15 15 14 14 14 13 13 12 13 13 13 13 12 12 11 11 11 11 10 10 13 13 13 14 13 13 13 13 13 14 14 13 12 11 10 10 10 10 11 11 11 10 9 11 13 12 12 11 10 10 11 11 10 10 11 13 12 10 10
21 21 22 22 20 19 19 19 19 19 19 19 18 18 18 18 17 16 16 16 16 16 15 15 15 15 15 15 14 14 13 13 13 13 13 12 12 12 11 11 10 10 10 10 10 10 12 13 13 13 13 13 12 12 12 12 11 11 11 10 9 8 8 9 9 10 10 9 8 10 11 11 10 8 8 9 9 10 10 9 10 12 11 9 8
21 21 22 22 21 19 19 19 20 19 20 20 19 19 19 18 18 17 16 15 15 15 16 15 15 15 15 15 14 13 13 13 13 14 13 13 13 12 11 10 10 10 10 9 8 9 11 12 12 12 11 11 10 10 9 9 8 9 9 9 8 6 7 7 7 9 9 8 7 7 8 10 10 7 7 8 8 8 9 9 9 10 10 11 10
22 21 22 22 21 20 20 20 20 20 20 20 19 19 19 19 18 18 17 15 15 15 15 15 15 15 15 14 14 13 12 13 12 13 14 14 13 12 10 9 9 9 10 8 7 8 10 10 10 9 9 10 9 8 7 7 6 7 8 9 9 6 6 7 8 9 8 6 5 4 6 9 9 8 7 7 7 8 10 9 7 7 9 8 10
21 21 21 21 21 21 20 20 20 20 20 19 19 20 20 19 19 19 17 15 15 15 15 15 15 15 15 14 13 12 11 11 10 10 11 12 12 12 11 9 9 8 8 7 5 6 8 8 8 7 8 9 9 8 7 6 5 6 7 8 8 7 6 8 8 8 7 4 3 5 7 8 9 8 7 7 8 9 11 10 8 5 7 7 9
21 21 20 21 22 21 21 20 21 21 20 20 21 21 20 20 20 19 17 15 14 15 15 15 15 15 14 13 12 11 9 9 8 7 7 7 8 10 11 10 10 9 8 7 5 5 7 7 6 6 7 8 8 8 7 6 6 5 6 7 8 7 7 9 9 8 7 4 4 6 7 7 8 8 6 6 7 9 10 10 11 6 5 7 8
21 20 19 21 23 21 21 21 22 21 20 22 22 20 20 20 19 18 16 15 14 14 15 14 15 15 13 12 11 9 8 7 7 7 6 6 5 7 10 11 11 10 10 9 7 6 6 5 4 5 6 7 8 8 7 7 6 6 6 6 7 7 9 10 8 6 5 4 5 6 7 8 9 8 6 6 6 9 9 7 9 8 5 5 4
22 20 19 22 23 22 21 22 22 21 21 23 23 20 19 19 19 18 16 15 15 15 15 14 15 14 13 12 10 9 8 8 8 9 8 7 6 6 6 9 11 10 10 9 7 6 5 4 4 6 6 7 8 7 7 7 7 7 6 6 6 7 9 7 4 3 2 4 6 6 7 8 10 8 5 6 6 7 7 6 4 5 6 5 5
22 20 19 22 23 22 22 22 22 21 22 24 23 20 19 18 18 17 16 15 15 15 14 14 14 13 12 11 10 9 8 9 10 10 9 9 8 7 6 6 9 10 11 10 7 5 4 3 4 5 5 6 7 8 7 7 7 7 6 6 6 8 8 5 2 4 2 6 6 6 6 7 9 6 4 6 6 5 5 4 2 4 6 6 5
21 20 20 23 24 22 22 22 22 22 23 24 22 20 18 18 18 17 16 15 15 15 14 14 14 13 12 11 10 9 9 9 10 10 8 7 7 6 6 6 6 10 12 10 6 6 5 3 4 4 4 6 7 8 7 7 7 7 6 6 5 8 6 4 4 2 3 6 5 5 6 8 7 4 5 6 6 5 4 3 4 5 5 5 5
22 21 21 23 23 22 22 22 21 23 24 23 21 19 18 18 17 17 16 16 15 15 15 14 13 13 12 11 10 10 9 9 9 9 8 7 6 4 4 3 3 8 12 9 5 7 6 4 4 3 3 4 6 7 7 6 6 6 7 6 5 8 6 7 6 1 3 5 4 4 6 8 5 4 6 7 5 4 4 4 3 3 3 4 4
23 22 20 22 23 22 21 22 21 23 24 21 21 19 18 18 17 17 17 16 15 15 14 13 13 12 12 11 10 10 9 9 9 9 8 8 7 5 4 3 2 6 10 11 7 5 6 6 4 3 2 3 5 7 7 6 5 5 6 6 5 6 4 5 5 2 4 4 3 4 7 6 3 4 6 5 4 3 3 3 2 2 3 3 3
22 22 20 21 22 21 20 21 22 23 23 21 21 19 19 18 17 17 16 16 15 15 14 12 12 12 11 11 10 10 10 10 10 10 9 8 8 7 5 4 2 5 9 11 8 3 5 6 4 3 1 2 4 5 6 5 4 4 5 6 4 2 0 4 4 2 2 2 2 4 7 3 3 3 5 4 3 4 4 4 4 4 4 4 4
21 22 21 21 22 21 19 19 21 23 22 21 21 20 19 18 17 17 16 15 14 14 13 12 12 11 11 11 10 10 10 10 9 9 9 7 7 8 7 6 4 3 7 9 7 3 4 6 4 2 1 1 3 4 4 4 3 3 3 5 4 2 1 4 5 1 1 2 2 3 6 1 3 3 4 3 2 3 4 4 4 4 4 4 4
21 21 21 21 21 20 19 19 21 21 21 21 21 19 18 17 17 16 16 15 14 13 12 12 11 11 11 10 10 9 9 9 8 8 8 8 7 7 8 8 6 4 5 7 7 6 6 6 5 3 2 1 1 2 3 4 3 2 2 3 4 4 3 4 4 2 2 2 2 4 6 2 4 1 4 3 2 3 4 2 2 3 3 3 4
20 20 20 21 20 19 19 19 20 19 18 19 19 19 18 16 16 15 15 14 14 13 12 12 10 10 10 9 8 7 7 7 7 6 7 8 7 6 7 7 6 5 4 4 6 7 7 6 5 4 3 2 2 2 3 4 4 2 0 1 3 4 5 5 3 1 2 1 1 3 3 2 7 0 5 3 2 2 3 1 1 2 2 3 3
19 19 20 20 19 19 19 19 19 17 16 16 16 17 18 16 16 15 14 14 13 12 12 11 10 10 8 8 6 6 6 6 6 6 5 5 7 5 4 6 5 4 4 3 4 6 6 7 6 5 5 4 3 3 3 4 4 3 1 1 0 3 4 5 5 3 1 1 1 3 3 6 7 2 5 3 2 1 1 1 2 1 0 1 2
18 18 18 18 19 19 19 18 17 17 16 15 15 16 17 16 15 14 14 14 13 12 11 10 9 8 7 6 6 7 6 6 7 7 5 4 4 2 2 4 4 4 4 4 4 5 6 6 6 6 6 6 5 5 4 5 4 4 2 2 3 2 1 5 5 4 2 1 1 3 4 7 5 3 4 3 2 1 2 1 2 1 0 1 1
18 17 17 18 19 19 19 18 17 16 15 16 16 15 16 16 14 14 14 13 12 11 10 9 8 7 6 6 6 7 5 5 6 4 4 4 2 1 1 2 2 2 3 3 4 5 6 7 7 7 7 7 7 7 7 7 6 5 4 3 4 4 5 6 5 4 3 2 2 6 5 7 4 2 3 3 1 2 2 1 2 1 1 2 2
19 18 17 18 19 19 18 18 17 16 16 16 16 16 16 15 13 13 13 12 12 11 9 9 8 7 6 6 6 6 5 4 3 1 3 2 2 2 2 2 1 1 1 2 3 5 6 7 8 8 8 8 8 8 10 9 8 7 6 6 6 7 8 7 6 6 6 3 3 6 7 7 5 2 4 4 3 5 5 5 3 3 3 4 5
18 18 18 19 18 18 18 18 17 16 16 15 14 16 16 15 14 13 12 12 11 11 10 10 9 8 7 6 5 4 4 3 2 3 3 2 1 3 1 1 2 2 2 3 3 4 6 7 8 10 10 10 10 10 11 11 10 8 8 9 8 9 10 8 7 8 7 5 5 7 8 8 6 2 4 5 5 6 8 8 3 5 5 5 4
19 19 19 18 18 18 18 18 17 16 15 14 14 16 15 15 15 13 13 13 12 11 11 9 8 7 6 5 5 4 4 3 2 2 3 4 3 2 1 1 1 1 3 4 4 4 5 6 7 8 10 12 12 12 12 11 11 9 8 10 10 11 11 9 9 9 9 7 7 10 10 9 7 3 3 6 6 7 10 8 4 5 5 6 6
20 19 19 19 18 18 18 18 17 16 14 14 14 15 15 14 14 13 13 12 11 10 9 8 7 7 6 5 5 4 4 3 3 2 2 4 3 2 2 1 2 3 4 4 7 7 6 7 8 7 8 11 12 12 12 11 11 11 10 10 11 12 12 11 11 11 10 8 10 12 11 10 8 6 5 7 7 8 10 8 5 6 7 8 9
20 19 20 20 18 18 19 18 17 15 14 14 14 14 14 14 14 13 13 12 11 10 9 8 7 7 6 5 4 5 4 4 3 2 2 2 2 3 3 2 3 6 5 5 7 7 7 8 9 9 9 10 11 11 12 13 13 13 13 12 12 13 13 13 12 12 11 10 11 13 13 12 9 8 8 8 9 9 10 8 7 8 9 11 12
19 19 20 19 19 18 18 18 16 15 14 14 14 14 14 13 13 13 12 12 11 10 9 8 8 7 6 5 5 5 5 4 3 3 2 2 2 2 4 4 5 6 5 6 6 6 7 7 7 8 9 10 11 12 12 13 14 15 15 15 14 14 13 14 14 13 12 12 13 15 14 14 12 10 10 10 9 10 11 10 10 9 10 13 13
18 18 19 19 19 19 18 18 16 16 15 14 14 13 13 12 12 12 11 11 11 10 9 8 8 8 7 6 6 5 4 3 3 2 2 2 3 3 5 5 5 7 7 7 7 8 8 7 9 9 10 12 12 13 13 13 14 15 15 16 16 15 14 15 15 14 13 13 13 15 16 16 14 13 12 12 11 11 12 12 11 10 11 14 14
18 18 19 19 19 19 18 17 17 16 15 15 13 13 13 13 13 12 11 12 11 10 10 9 9 8 8 7 5 5 4 3 3 2 2 2 3 4 5 5 5 7 8 7 6 8 8 8 10 10 12 13 13 13 14 14 15 14 14 16 16 16 15 16 16 16 15 14 14 15 16 16 15 15 14 14 13 12 12 13 12 10 11 14 14
19 18 18 18 19 19 17 17 17 16 15 15 13 13 13 13 13 12 12 13 11 11 11 10 9 9 8 7 5 5 3 2 2 2 3 3 3 4 5 5 5 5 6 7 7 7 8 9 10 11 13 14 14 15 15 15 15 15 15 16 16 16 16 16 16 17 16 16 15 15 15 16 17 17 16 16 16 14 13 13 13 11 12 14 13
19 18 18 18 18 18 17 17 16 15 15 14 13 13 13 13 13 12 13 13 11 11 11 10 9 8 8 7 6 5 3 2 2 2 3 3 3 4 4 4 4 4 6 6 7 8 9 10 10 11 12 13 14 15 15 15 15 15 16 17 17 16 16 17 17 18 18 17 16 15 16 18 19 19 17 17 17 17 15 15 15 13 14 15 13
20 19 18 19 19 18 18 17 16 15 15 14 13 13 13 13 13 13 13 13 12 12 11 9 9 8 8 7 6 5 4 3 2 2 3 3 3 3 4 4 4 4 5 7 7 8 9 10 11 11 12 13 13 14 15 15 17 16 16 16 17 17 17 17 17 17 18 18 17 17 17 18 19 20 20 19 19 19 19 17 17 15 15 16 15
20 20 19 19 19 19 18 16 16 15 14 13 13 13 13 13 13 13 13 13 13 12 10 9 9 8 8 7 5 4 3 3 2 2 3 3 4 4 4 4 4 4 6 7 8 8 9 10 10 11 12 12 13 14 14 15 16 17 17 16 17 18 18 18 19 19 19 18 19 18 18 17 18 20 21 21 21 21 21 20 19 19 17 16 16
20 19 20 20 19 18 17 16 15 15 14 13 13 13 13 13 13 13 14 13 13 11 11 10 9 8 7 6 5 4 2 2 1 1 2 3 5 5 4 4 3 5 6 7 8 8 8 9 10 11 11 11 13 13 14 15 15 16 17 17 17 17 16 17 20 22 21 19 19 20 19 19 18 19 20 21 23 23 23 22 21 21 19 16 17
20 20 20 20 18 17 16 15 15 14 14 13 13 13 13 13 13 13 14 13 13 12 11 10 9 8 7 6 5 3 2 1 0 1 2 3 4 5 4 4 4 5 6 7 8 9 9 10 10 11 11 12 13 13 14 14 15 16 16 16 17 17 16 17 19 21 21 21 22 20 19 19 19 19 19 20 23 24 24 24 24 22 21 18 18
20 20 20 20 18 16 16 15 15 15 14 13 13 13 13 13 12 12 13 13 12 10 10 9 8 7 6 6 5 4 2 1 1 1 2 3 4 5 4 5 5 6 7 8 9 10 10 10 11 11 13 14 14 14 15 15 16 16 16 16 16 17 17 16 17 19 20 22 23 21 20 20 20 20 19 18 20 23 24 25 25 24 23 21 19
19 20 20 19 17 16 15 15 16 15 14 14 13 13 13 12 12 12 12 12 10 9 9 9 8 7 6 6 5 4 3 1 0 1 2 4 4 5 5 5 6 7 7 9 10 10 10 11 12 12 13 15 16 16 16 16 17 17 17 17 17 17 17 17 17 17 20 24 24 24 25 24 22 22 22 21 20 20 22 24 25 24 24 23 22
19 19 19 18 17 16 16 16 16 15 14 14 13 12 11 10 10 10 10 9 8 9 9 8 8 7 7 7 5 4 2 1 1 2 3 4 5 5 6 6 7 7 8 9 10 10 11 11 12 13 13 14 16 17 17 17 18 18 18 19 18 18 18 18 18 17 19 22 22 23 23 22 23 23 23 24 23 21 20 22 24 23 23 25 25
19 19 18 17 17 16 15 16 15 13 13 12 11 10 9 9 8 8 8 9 9 9 9 8 8 8 7 7 5 4 2 2 2 3 4 5 5 6 7 8 8 8 9 10 10 10 11 12 13 14 14 15 15 16 17 17 17 17 18 19 20 20 20 19 19 19 20 20 22 23 21 20 23 23 22 24 23 21 20 21 22 23 24 25 26
16 18 17 16 15 15 15 14 11 10 11 11 11 11 9 8 9 9 9 10 9 9 9 8 8 8 7 6 5 4 3 3 3 4 4 5 6 7 7 8 9 9 10 10 11 12 13 14 15 15 16 16 16 16 16 16 17 18 19 20 20 20 20 20 20 20 20 20 21 22 21 21 22 23 23 23 22 21 20 19 21 23 24 24 26
10 12 13 13 12 12 12 11 9 9 10 11 11 11 10 8 9 11 12 10 10 9 9 9 8 8 7 6 6 4 4 4 4 4 5 5 6 7 7 8 8 9 10 11 12 13 14 15 15 16 16 17 17 16 16 17 17 17 17 18 20 20 19 19 20 21 20 21 22 22 21 21 22 22 23 22 23 24 23 22 23 24 23 23 24
6 7 8 9 9 10 11 10 10 10 11 11 10 10 8 9 11 13 13 10 9 10 10 9 9 9 8 6 5 4 4 4 4 4 4 5 5 6 7 8 8 9 10 11 12 13 14 14 15 16 16 16 17 17 17 15 15 15 14 15 16 17 17 17 20 20 20 21 23 22 22 22 22 22 23 22 22 25 23 22 23 22 21 22 22
12 9 7 8 8 11 12 11 11 11 11 11 11 10 7 11 14 12 10 8 9 10 10 9 10 9 8 6 5 5 4 4 4 4 4 4 5 6 7 7 8 9 10 11 11 12 13 13 14 15 16 17 17 17 16 13 14 15 13 11 10 11 13 12 11 13 16 19 22 23 24 25 24 23 24 24 22 21 20 20 23 22 21 24 25
19 12 9 9 8 11 11 9 10 10 10 10 9 9 7 10 12 9 9 11 11 11 10 9 8 7 6 5 5 5 4 3 3 4 4 5 5 6 7 7 8 9 10 10 11 12 12 13 14 15 16 16 17 17 17 14 14 13 10 8 9 9 9 8 10 12 14 16 20 22 24 25 26 25 26 26 23 18 17 20 24 24 23 26 28
16 12 11 10 9 11 11 9 9 9 10 11 10 10 7 9 10 10 11 12 11 10 9 8 7 6 6 5 5 4 4 3 3 4 4 5 5 6 6 7 8 8 9 10 10 12 12 13 14 14 15 15 16 18 17 15 13 12 9 8 8 7 7 11 14 13 12 12 15 17 20 23 24 25 26 25 21 18 17 18 20 22 24 25 28
15 14 12 9 8 11 12 11 10 9 11 12 12 13 10 12 10 10 10 10 10 9 8 7 7 6 5 5 4 4 4 3 3 4 4 4 5 5 6 6 7 8 9 9 10 11 12 13 13 14 15 16 16 17 17 16 14 12 9 8 9 10 10 13 12 9 11 13 13 14 17 20 20 22 24 23 19 20 21 19 19 21 23 23 24
17 15 13 10 10 11 12 12 10 12 14 13 12 14 12 15 10 8 8 9 9 9 7 7 6 5 5 4 4 4 3 4 3 4 4 5 5 5 6 7 7 8 8 9 10 11 12 13 14 14 15 16 15 15 16 17 15 12 10 10 13 15 15 14 11 9 10 12 13 13 15 15 16 19 22 22 20 22 23 22 21 20 21 23 22
17 16 14 11 13 13 11 10 9 11 14 13 12 12 12 14 8 8 8 8 9 9 7 5 5 4 4 4 4 4 3 4 4 4 5 5 6 6 6 7 8 8 8 9 10 11 13 13 14 15 16 16 15 14 15 15 14 13 13 12 13 16 16 16 16 13 9 9 12 13 13 13 13 16 18 21 21 23 25 22 20 20 21 23 23
17 17 14 11 12 12 9 9 8 8 10 11 9 10 11 9 7 9 9 9 8 7 6 5 5 4 3 4 3 4 3 4 4 5 6 6 6 6 7 7 8 8 9 10 11 12 13 13 14 16 16 16 15 14 14 14 13 14 14 14 14 16 15 13 14 14 9 8 9 9 12 12 12 14 16 18 19 23 26 22 21 22 23 23 23
18 16 16 14 9 8 9 8 8 8 9 10 8 8 8 7 8 9 9 8 7 6 6 5 5 4 4 3 3 4 4 4 5 6 7 7 7 7 7 8 8 9 9 10 11 12 12 13 14 16 16 16 15 14 13 13 14 13 13 14 15 15 14 11 13 14 10 8 8 9 11 11 11 12 12 16 19 21 23 23 21 22 23 23 22
18 15 18 18 11 11 15 11 8 10 10 11 10 7 8 9 9 9 8 6 6 6 6 5 4 4 4 3 4 4 5 5 5 6 7 8 7 7 8 8 8 9 9 10 10 11 12 13 14 15 16 16 15 15 13 13 15 14 14 15 14 14 13 12 15 17 12 8 9 9 11 12 14 15 14 16 20 18 19 22 22 21 23 25 22
Wind_Direction
132 130 137 141 133 132 131 131 134 129 123 124 133 137 136 136 136 135 136 139 140 138 132 125 119 118 118 118 117 115 113 109 106 105 105 107 108 105 105 103 96 91 87 85 86 89 94 97 96 95 93 92 92 92 95 96 96 95 93 92 93 93 94 94 91 89 89 89 88 88 88 86 84 85 85 81 78 77 72 73 69 68 68 66 69
134 133 137 139 135 131 132 133 136 130 124 124 132 137 136 136 137 137 137 140 138 134 130 125 123 123 122 120 117 115 112 109 108 108 109 108 109 107 107 104 98 94 90 87 87 92 95 95 96 93 92 92 93 91 95 99 97 94 92 91 92 95 96 94 91 89 88 88 91 93 93 91 88 84 81 81 83 81 78 80 72 66 66 62 61
132 132 134 138 135 130 131 134 137 132 126 125 127 131 133 134 136 138 138 138 134 131 129 128 127 125 122 120 118 115 111 110 110 110 111 110 111 109 109 105 100 97 93 90 89 97 97 95 94 91 91 92 91 89 91 95 94 90 86 86 87 90 91 91 92 89 85 82 88 92 88 88 89 85 80 78 77 75 76 76 71 65 61 56 56
133 132 133 136 132 130 130 134 139 134 130 129 128 129 132 132 133 134 134 133 132 132 130 130 127 123 121 120 117 114 111 110 109 107 106 105 107 107 105 102 100 99 95 92 93 101 101 95 92 92 93 90 87 84 85 87 85 83 78 77 80 89 93 93 91 85 86 87 93 90 81 83 85 82 76 70 67 66 66 65 66 63 54 44 49
136 133 132 132 130 132 131 137 140 135 134 133 133 133 133 131 132 132 133 134 135 135 133 132 126 123 120 118 115 113 113 112 110 107 104 100 100 100 100 100 97 99 97 93 98 104 102 95 92 93 93 87 81 79 77 79 81 80 75 70 69 88 105 105 96 87 90 96 103 100 87 89 84 74 65 61 60 57 55 54 60 65 55 35 28
139 135 132 130 130 134 135 141 142 138 133 132 135 137 138 135 136 136 138 139 139 138 134 131 126 124 121 118 118 116 117 117 117 115 116 115 112 108 102 100 97 98 98 98 104 106 101 94 93 94 90 81 72 68 64 68 76 84 77 64 58 74 118 120 104 97 99 100 98 101 91 89 84 70 54 51 54 52 47 41 45 70 75 50 27
139 136 132 131 131 135 139 144 144 140 133 132 134 136 138 136 137 139 140 141 140 139 134 131 127 125 122 120 119 118 118 117 118 120 125 128 128 124 117 113 107 103 100 104 110 107 104 94 91 99 90 74 62 55 55 57 69 86 74 61 53 61 115 118 101 98 91 80 71 88 87 85 87 76 56 55 62 59 52 44 36 66 94 80 52
142 137 132 131 132 135 140 145 144 140 135 134 134 134 135 134 137 139 142 141 140 140 134 132 128 125 123 121 118 116 115 114 116 119 125 130 138 141 138 137 131 127 118 120 122 98 96 92 93 108 90 66 54 49 51 55 66 80 71 60 49 62 112 114 105 99 77 60 68 79 77 84 91 82 69 66 74 72 62 48 37 49 99 97 85
143 138 131 131 131 134 139 144 144 140 138 136 134 133 133 134 138 140 142 142 142 139 134 132 129 126 124 120 117 112 111 112 109 105 107 113 125 143 149 151 147 143 139 137 133 111 99 98 115 114 84 59 49 49 54 60 71 75 72 59 47 80 116 110 104 94 75 72 68 65 64 82 95 84 69 65 84 85 78 70 49 49 78 104 109
139 134 130 132 131 132 139 144 144 141 139 137 136 134 135 136 138 140 141 144 144 138 135 133 129 127 124 119 113 108 106 104 98 93 93 95 96 112 137 154 156 150 148 142 127 121 124 127 126 107 76 56 47 49 54 62 70 68 67 54 59 103 120 115 95 27 52 89 76 81 69 70 90 85 56 59 92 103 102 122 103 58 60 70 72
134 128 128 133 131 131 138 143 144 142 139 138 136 135 137 139 139 141 142 145 143 139 136 133 130 126 123 117 109 105 102 98 94 90 88 90 89 93 99 128 156 157 154 140 125 143 159 153 122 100 76 57 44 43 50 59 61 57 56 50 80 116 124 122 51 350 52 93 84 98 84 72 87 83 59 72 94 115 122 131 112 57 59 62 66
136 129 129 132 129 130 137 143 144 142 140 138 136 137 140 142 141 141 143 145 143 140 138 136 132 127 121 112 107 101 96 95 97 96 94 93 94 100 101 105 140 159 157 140 145 188 189 169 139 109 77 55 41 41 48 58 53 48 45 43 92 120 114 80 46 15 81 80 78 89 83 81 84 67 74 82 84 95 100 90 67 63 64 60 61
137 126 128 130 129 132 138 142 143 142 140 138 137 140 142 143 142 142 145 144 144 142 139 139 135 127 118 109 105 97 93 94 95 98 99 93 93 105 124 133 145 163 161 152 173 206 201 187 164 127 79 50 40 43 49 59 52 41 39 42 95 119 96 57 42 53 82 71 80 81 77 82 71 47 78 87 83 83 77 84 79 68 63 53 53
130 124 129 129 130 134 138 141 141 141 140 139 141 142 144 145 144 146 147 146 146 143 141 141 134 125 115 108 100 92 90 92 93 93 90 83 84 89 101 134 164 173 174 172 176 195 196 187 166 133 79 44 37 42 49 58 51 40 36 42 91 127 102 46 29 68 84 80 87 85 95 94 52 45 82 91 76 71 73 88 92 77 72 57 51
128 129 132 127 131 134 136 140 139 140 142 143 144 145 146 147 149 149 147 147 148 144 144 142 133 125 117 110 100 91 88 89 90 91 89 80 75 75 80 88 115 163 179 184 180 180 186 179 165 144 98 42 32 36 47 53 51 43 37 42 70 132 118 352 353 78 97 92 92 93 107 97 340 63 90 83 64 61 67 71 75 75 69 58 55
133 135 132 128 131 133 135 138 140 142 145 148 148 149 149 151 152 149 147 147 148 147 146 142 134 128 121 112 103 95 90 88 87 90 93 85 73 67 68 75 80 135 173 182 181 189 189 177 171 164 150 40 24 28 36 43 43 43 42 42 57 107 70 6 352 10 90 97 103 93 118 105 340 96 107 87 83 67 63 61 67 67 63 58 56
139 137 133 133 132 133 135 138 142 143 148 153 151 151 152 154 154 150 149 149 149 149 146 143 137 131 123 113 106 100 94 85 82 85 89 87 79 74 65 65 71 99 163 181 188 196 193 181 184 194 197 244 349 7 17 27 24 27 59 43 64 100 93 49 13 350 52 99 121 87 123 121 335 82 118 114 128 80 77 69 45 40 54 63 57
144 139 139 139 135 133 134 138 142 141 146 152 152 153 154 155 154 152 152 152 151 150 147 145 140 133 124 116 109 103 92 74 77 79 86 89 72 72 74 68 68 83 125 176 197 204 198 193 201 210 221 240 280 322 348 4 4 359 50 51 73 102 101 66 22 356 76 141 141 107 149 294 311 278 123 149 157 91 99 113 102 73 65 67 61
147 142 145 145 141 137 135 138 141 142 144 147 152 155 157 156 154 155 155 154 152 151 149 147 141 132 126 122 116 109 95 76 82 70 68 85 72 68 78 86 84 86 110 146 182 204 201 203 213 219 232 242 260 288 314 332 345 341 301 226 173 120 95 34 343 295 165 221 129 144 228 307 301 175 141 197 168 117 175 183 204 178 113 64 67
147 144 149 149 143 141 141 141 142 145 144 144 149 153 157 155 153 156 156 155 154 153 150 148 143 134 133 131 123 120 106 89 93 77 62 61 76 105 81 90 100 100 124 151 170 196 204 210 218 222 233 242 254 271 288 301 312 314 296 238 241 204 318 331 310 286 255 226 159 190 267 320 295 178 150 196 162 191 215 181 218 252 295 209 114
148 149 150 147 143 145 146 142 144 145 143 143 144 151 157 153 153 157 157 156 155 155 153 153 147 139 142 141 131 130 124 102 94 79 76 50 23 242 251 94 110 110 130 170 189 204 214 222 227 232 238 244 252 265 276 285 290 288 281 253 247 253 270 283 275 267 261 249 188 204 260 318 299 191 167 194 205 220 244 262 221 236 262 242 250
151 152 151 149 147 148 147 142 145 145 142 143 145 152 155 151 155 158 160 161 158 158 160 164 160 153 157 156 145 138 140 118 104 103 97 79 353 323 265 234 209 194 178 192 210 220 228 235 241 248 250 255 261 266 267 267 274 275 268 259 248 252 259 261 265 262 256 246 200 217 258 304 304 215 177 196 229 239 275 310 245 218 235 242 260
155 154 151 153 151 149 147 144 143 145 146 145 147 153 154 155 157 160 165 167 165 168 169 171 169 163 164 160 153 152 149 136 170 189 162 178 278 342 299 232 253 235 251 249 240 237 239 244 246 252 257 260 262 261 258 247 249 260 259 257 248 249 253 251 258 259 256 241 219 244 261 285 299 243 171 195 232 255 281 303 271 222 234 239 255
158 155 153 154 153 149 146 143 144 148 150 148 150 154 157 159 160 162 167 168 168 172 170 168 167 163 166 167 165 172 167 170 199 187 175 195 231 324 46 61 256 259 286 261 248 264 272 262 255 262 263 258 253 249 252 245 240 247 243 243 243 245 250 248 250 250 254 246 223 239 253 269 284 260 194 199 226 260 270 284 274 232 239 240 239
158 155 153 153 152 150 146 143 149 155 153 152 155 157 160 162 164 165 166 168 167 169 171 166 168 170 173 182 181 179 186 196 197 196 196 197 209 250 298 344 242 259 300 272 247 256 269 256 251 264 259 246 243 244 253 256 249 247 237 233 240 244 247 246 247 248 251 246 229 237 250 260 266 255 236 214 219 249 263 271 261 243 248 245 240
158 155 153 151 151 151 148 147 154 161 158 156 158 159 163 165 165 165 166 169 170 172 176 173 176 180 179 183 181 182 196 196 186 200 203 208 213 220 261 283 254 258 266 266 254 254 261 254 251 256 255 247 248 250 252 257 258 256 251 243 243 246 249 248 246 246 246 245 242 246 251 254 259 252 243 231 219 233 251 250 241 244 249 249 253
158 156 153 151 151 152 149 150 159 163 161 159 158 161 166 166 164 166 168 171 174 177 178 176 177 179 181 179 177 184 192 189 184 199 203 232 254 259 267 260 265 274 261 262 272 272 266 265 270 270 272 269 263 261 255 253 255 257 258 253 247 243 246 250 249 245 244 244 244 249 252 252 255 250 245 244 229 226 235 234 234 241 250 256 261
156 155 155 151 151 152 151 154 161 163 162 161 161 164 167 164 163 167 168 167 171 177 177 173 173 175 175 173 179 185 181 185 192 206 228 252 281 289 283 274 272 280 273 268 278 284 278 274 281 276 276 278 271 268 265 260 258 256 257 258 254 246 242 246 250 249 247 246 243 249 255 254 253 250 246 247 240 230 229 227 229 231 246 257 260
152 154 153 152 152 152 155 157 162 165 162 163 165 164 164 162 163 167 166 166 171 174 170 168 169 171 172 171 176 183 180 191 204 229 253 261 277 274 280 283 278 281 283 281 278 285 288 281 278 271 271 275 274 272 267 263 264 261 259 261 259 253 247 243 247 250 249 247 246 251 254 253 253 254 251 248 244 237 227 224 227 227 240 252 256
151 153 153 154 155 156 158 160 164 166 163 165 166 161 160 161 163 165 164 168 171 167 166 170 170 165 168 171 172 180 190 208 219 242 257 261 268 270 276 281 285 289 288 289 286 285 284 278 276 272 270 273 275 276 270 263 264 264 264 264 262 259 255 248 245 248 250 248 247 250 251 251 253 255 255 251 245 240 227 223 231 233 234 243 251
152 153 157 155 157 160 161 164 165 164 164 166 164 160 160 161 161 161 164 167 165 164 169 171 166 162 165 167 171 180 189 206 222 240 257 264 266 273 284 292 299 296 291 295 297 294 288 282 280 278 276 278 278 278 276 273 272 268 265 265 266 264 262 259 253 249 250 249 248 245 246 253 254 252 254 251 246 242 232 223 229 239 237 233 235
155 157 160 157 159 163 163 166 165 163 166 166 160 161 161 160 160 160 162 163 160 165 169 166 164 164 165 163 167 180 188 200 220 251 271 282 287 293 299 306 308 303 304 304 299 296 292 289 286 282 281 282 281 280 279 278 276 273 268 267 266 265 263 262 260 257 252 249 248 247 245 249 252 253 253 251 247 242 236 226 221 231 239 229 226
158 159 159 159 163 164 163 164 164 166 167 165 161 162 162 160 161 160 160 161 164 167 165 164 165 163 163 164 168 176 188 203 229 282 301 305 305 307 307 308 310 308 308 301 296 294 291 292 290 287 283 281 281 280 279 277 275 275 273 269 265 263 263 261 261 263 261 252 247 247 247 247 249 252 253 251 247 241 238 233 223 224 230 227 227
158 158 158 161 164 163 163 163 165 168 167 165 164 164 164 161 162 161 162 166 168 167 165 166 164 162 164 164 164 165 178 199 239 310 317 310 305 308 312 313 312 306 301 295 292 288 288 290 290 290 288 284 283 281 281 281 279 278 277 275 272 268 267 265 263 263 264 262 255 248 248 250 248 245 247 247 246 241 237 235 230 226 225 223 227
159 159 159 161 162 160 162 162 165 168 168 167 167 166 164 163 164 164 166 170 169 167 165 164 163 163 161 156 154 150 158 181 168 296 295 295 301 308 314 314 309 302 297 294 292 290 290 291 292 294 293 290 288 287 285 284 283 282 281 280 278 274 269 265 266 266 264 264 263 256 249 252 254 249 243 241 242 240 237 235 233 229 225 223 224
160 159 157 160 160 160 162 163 164 166 167 168 167 166 166 166 166 166 168 168 168 168 164 162 161 157 150 147 146 140 152 170 195 263 286 293 304 309 313 310 306 304 301 298 295 294 294 293 294 295 295 294 293 291 289 288 287 285 283 281 280 280 275 267 265 265 262 260 262 259 252 250 254 253 245 240 239 236 235 234 232 231 227 224 222
156 155 157 159 159 160 163 163 164 165 166 168 168 168 169 167 165 167 168 168 169 168 162 158 152 148 143 140 137 139 149 146 214 302 305 306 310 310 312 314 312 310 307 304 301 300 300 298 296 295 297 297 296 296 293 291 289 287 286 284 282 281 278 273 268 264 263 262 261 259 256 251 249 250 247 244 240 234 235 234 232 231 229 226 223
152 155 157 159 160 163 164 162 165 165 164 165 166 168 166 163 166 167 165 169 172 165 159 151 144 141 135 131 131 133 130 106 8 334 324 318 316 315 320 323 322 320 316 312 308 307 307 305 304 302 302 300 299 299 297 296 293 290 287 285 283 280 276 274 271 266 263 263 263 261 258 252 251 251 245 243 240 231 229 231 230 229 229 227 225
151 155 157 160 161 163 162 160 160 160 162 161 162 165 159 161 169 169 174 180 175 162 152 143 136 131 125 124 124 118 100 59 20 356 339 330 328 327 332 332 330 328 322 319 316 316 317 314 311 309 307 302 299 298 298 298 295 292 289 286 283 279 275 271 268 266 264 262 263 264 261 255 255 253 244 241 242 237 231 227 226 226 228 228 226
148 152 156 160 161 160 155 152 149 149 156 157 160 163 160 167 170 176 196 193 169 151 140 134 127 120 117 115 109 98 81 52 26 7 350 340 339 337 337 335 333 330 325 323 320 319 319 317 315 313 309 305 301 300 300 300 298 294 291 288 285 281 275 269 265 264 263 264 265 265 261 257 255 253 248 242 240 242 235 222 222 225 226 226 226
137 149 153 154 155 150 145 146 149 156 160 155 160 166 167 182 186 189 198 187 159 141 131 126 118 113 110 104 97 85 65 46 25 8 353 343 343 340 336 334 330 327 324 320 318 317 317 316 316 314 311 309 307 305 305 304 300 297 295 293 290 285 276 266 263 264 262 262 265 266 263 260 257 252 249 244 240 239 232 224 229 231 223 222 227
143 155 145 149 146 141 149 159 162 170 169 157 158 165 176 204 208 198 188 171 149 134 126 121 112 109 107 97 88 75 58 47 30 9 359 349 344 337 333 331 326 324 322 319 317 316 316 317 318 316 314 313 309 308 309 306 302 304 305 300 296 292 284 270 262 261 259 258 263 268 267 265 262 257 254 249 241 237 234 232 234 231 220 215 220
161 153 144 157 147 145 157 164 165 174 177 164 160 163 186 221 218 201 174 140 119 116 117 116 110 106 101 90 79 70 59 53 37 13 2 349 339 334 331 328 326 325 322 320 320 318 318 319 318 317 316 314 310 308 313 315 312 311 308 301 304 307 299 288 278 272 271 267 265 268 267 264 264 263 260 254 243 235 233 230 226 223 218 216 219
160 152 154 157 144 147 154 161 167 174 176 164 158 154 173 219 210 179 139 119 111 112 113 112 108 105 98 87 78 70 60 48 28 10 356 343 338 335 333 331 331 331 326 323 321 320 322 322 321 321 317 315 313 312 316 321 319 313 310 303 303 305 300 312 321 304 290 276 264 265 265 263 263 264 262 256 248 240 234 232 231 226 222 222 224
147 152 167 159 146 152 153 163 169 174 172 157 154 146 154 211 192 140 124 122 123 126 124 121 117 113 105 93 79 64 51 38 18 5 352 343 345 340 339 340 335 333 329 326 323 322 323 323 324 323 318 314 313 313 317 324 325 314 304 302 302 301 302 317 318 306 299 285 267 266 267 265 265 265 267 263 253 244 238 235 233 228 225 225 223
145 156 169 156 148 154 155 165 167 173 170 157 154 147 161 218 201 146 138 135 133 133 127 124 121 116 108 98 81 58 39 28 14 4 358 352 354 349 346 344 336 333 329 323 320 319 322 324 324 322 316 316 316 315 317 324 332 325 310 304 307 303 299 309 314 306 306 300 287 278 276 278 276 271 270 270 260 249 243 235 228 226 228 225 218
155 152 153 150 156 159 157 165 168 167 164 157 154 149 180 225 212 150 143 137 130 125 114 108 106 109 108 96 77 58 37 31 25 11 14 8 2 357 348 345 337 333 330 324 322 322 325 326 324 321 318 320 323 320 322 329 334 334 328 317 310 310 306 302 302 305 305 303 304 297 289 289 285 277 271 268 265 257 248 239 230 227 229 226 219
148 138 137 148 165 164 156 166 174 163 159 158 153 155 197 221 186 132 125 117 116 113 112 114 108 107 99 84 69 57 39 35 34 21 23 15 4 360 350 348 342 337 336 331 330 329 328 329 325 322 323 325 329 328 330 335 335 333 332 323 315 318 316 302 294 297 301 304 308 305 302 299 285 281 278 271 270 266 259 250 235 226 226 229 225
133 128 129 144 166 163 148 161 174 161 156 155 156 174 198 197 146 125 113 104 108 112 120 130 121 109 87 78 73 59 45 43 39 28 26 16 7 5 356 354 349 345 343 337 337 334 332 333 328 326 328 329 333 336 334 333 333 332 332 330 324 323 323 312 302 303 303 303 305 304 313 311 291 284 282 279 276 267 264 261 246 233 229 232 230
125 128 137 147 155 150 143 157 162 157 165 157 158 181 172 139 120 112 103 106 120 127 129 128 116 106 94 84 74 61 53 48 39 31 26 16 13 13 5 2 356 352 349 344 343 340 336 336 332 331 335 335 336 340 336 332 333 333 336 336 332 330 331 332 332 331 323 309 304 306 312 312 305 294 284 289 288 270 263 264 259 247 235 231 228
124 136 152 152 146 150 149 155 165 160 160 148 145 159 133 113 104 94 96 115 128 135 133 125 117 111 103 90 78 68 58 49 40 32 26 18 17 17 11 8 4 359 355 351 348 344 340 339 337 338 340 342 344 344 341 336 336 341 345 344 337 333 332 334 338 336 330 322 318 315 312 309 307 300 292 296 293 275 265 267 263 254 242 235 230